STARLINK-4600, 53628

Orbit data source: Space-Track

STARLINK-4600, 53628 is a payload satellite owned by SpaceX/Seattle (US) in LEO that was launched on Sun, 28 Aug 2022 UTC via an FALCON 9 launch vehicle from the Air Force Eastern Test Range (AFETR). Payload-class satellites include a variety of spacecraft equipped with specific instruments for various scientific and technological missions. These include communications satellites like Starlink; space stations such as the ISS; scientific satellites like the Hubble; Earth observation satellites from companies like Planet Labs, Umbra, and HawkEye 360; GPS; miniature CubeSats for education and research; and military/defense satellites.

Loading next visibility...
Identifier
53628, 2022-104AS
Orbit
LEO
Country
Flag of USUS
Related business
Manufacturer
SpaceX/Seattle
Mission
Operational Commercial Communications
Bus & Motor
STARLINK, Unknown motor
Mass
300 kg wet, ~290 kg dry
Launch date (UTC)
2022-08-28 (3 years ago)
Launch vehicle
FALCON 9
Launch site
Air Force Eastern Test Range (AFETR)
Object type
Payload
Rocket body
Debris
Shape & HBR
Box + 1 Pan, 10.1 m
Radar Cross Section
13.562 m², Large (>1 m²)

Expand to show TLE details & history
Last TLE update: 1 day ago

TLE from 1 day ago
0 STARLINK-4600
1 53628U 22104AS  25347.06388823 -.00001842  00000-0 -97672-4 0  9994
2 53628  53.2176 262.5637 0001172  77.9528 282.1596 15.08831405182683
Epoch: 2025-12-13T01:31Z
TLE epoch observation values (Epoch: 2025-12-13T01:31:59.943Z)
Latitude
0.00004°
Longitude
157.56744°
Altitude
540.496 km
Speed
7.593 km/s
True Right ascension
17h 30m 15s
True Declination
0° 00' 00"
Sunlit
Object was in daylight at epoch
Visualization orbit readout
Latitude
Unknown
Longitude
Unknown
Altitude
Unknown
Speed
Unknown
Apparent Right ascension
Unknown
Apparent Declination
Unknown
Sunlit
N/A
Visualization observer readout
Local Sidereal Time
01:32:46
Azimuth
Unknown
Elevation
Unknown
Doppler factor
Unknown
Orbital elements
Apogee altitude
540.825 km
Perigee altitude
539.204 km
Semi-major axis
6,918.152 km
Eccentricity
0.00012
Inclination
53.2176°
RAAN
262.5637°
Arg. of periapsis
77.9528°
True anomaly
282.14647°
Mean anomaly
282.1596°
Eccentric anomaly
282.15304°
Mean motion
3.77188 °/min
Orbital period
95.44 mins
BSTAR
-0.000097672
Loading maneuver chart data...
Computing Atmospheric mass density...
Loading historical data...
Loading historical data...
Loading historical data...
Loading historical data...
Loading historical data...
Loading historical data...
Loading historical data...

Documentation

Showing up to 5 results
|